Namest Nad Oslav, Czech Republic

1:57 AM CEST on September 22, 2017 (GMT +0200)
Namest

Weather History for LKNA - November, 2012

Change the Weather History Date:

Saturday, November 17, 2012

  Actual Average Record
Temperature  
Mean Temperature 40 °F -  
Max Temperature 41 °F - - ()
Min Temperature 39 °F - - ()
Degree Days  
Heating Degree Days 25    
Moisture  
Dew Point 39 °F    
Average Humidity 94    
Maximum Humidity 100    
Minimum Humidity 87    
Precipitation  
Precipitation 0.00 in - - ()
Sea Level Pressure  
Sea Level Pressure 30.01 in    
Wind  
Wind Speed 9 mph ()    
Max Wind Speed 13 mph    
Max Gust Speed -    
Visibility 2.9 miles    
Events      
T = Trace of Precipitation, MM = Missing Value Source: Averaged Metar Reports

Daily Weather History Graph

Daily Weather History Graph

Search for Another Location

Airport or City:

Trip Planner

Search our weather history database for the weather conditions in past years. The results will help you decide how hot, cold, wet, or windy it might be!

Date:

Astronomy

Nov. 17, 2012 Rise Set
Actual Time 7:09 AM CET 4:11 PM CET
Civil Twilight 6:33 AM CET 4:46 PM CET
Nautical Twilight 5:55 AM CET 5:25 PM CET
Astronomical Twilight 5:17 AM CET 6:02 PM CET
Moon 10:41 AM CET (11/17) 8:00 PM CET (11/17)
Length of Visible Light 10h 12m
Length of Day
9h 02m
Waxing Crescent, 18% of the Moon is Illuminated
Nov 17
Waxing Crescent
Nov 20
First Quarter
Nov 28
Full
Dec 6
Last Quarter
Dec 13
New

Hourly Weather History & Observations

Time (CET) Temp. Windchill Dew Point Humidity Pressure Visibility Wind Dir Wind Speed Gust Speed Precip Events Conditions
12:00 AM 41.0 °F 34.7 °F 39.2 °F 93% 30.09 in 4.3 mi SE 10.4 mph - N/A   Overcast
1:00 AM 41.0 °F 34.3 °F 39.2 °F 93% 30.09 in 4.3 mi SSE 11.5 mph - N/A   Overcast
2:00 AM 41.0 °F 34.3 °F 39.2 °F 93% 30.09 in 3.7 mi SE 11.5 mph - N/A   Overcast
3:00 AM 41.0 °F 33.9 °F 39.2 °F 93% 30.06 in 4.3 mi SE 12.7 mph - N/A   Overcast
4:00 AM 39.2 °F 32.0 °F 37.4 °F 93% 30.06 in 5.0 mi SE 11.5 mph - N/A   Overcast
5:00 AM 39.2 °F 32.5 °F 39.2 °F 100% 30.04 in 4.3 mi SE 10.4 mph - N/A   Overcast
6:00 AM 39.2 °F 32.0 °F 37.4 °F 93% 30.04 in 4.3 mi SE 11.5 mph - N/A   Overcast
7:00 AM 39.2 °F 32.5 °F 37.4 °F 93% 30.04 in 3.7 mi SSE 10.4 mph - N/A   Overcast
9:00 AM 39.2 °F 33.0 °F 39.2 °F 100% 30.04 in 2.8 mi SE 9.2 mph - N/A   Overcast
10:00 AM 39.2 °F 31.6 °F 37.4 °F 93% 30.04 in 2.8 mi SE 12.7 mph - N/A   Overcast
11:00 AM 39.2 °F 32.5 °F 37.4 °F 93% 30.04 in 3.1 mi SSE 10.4 mph - N/A   Overcast
12:00 PM 41.0 °F 34.7 °F 37.4 °F 87% 30.01 in 3.1 mi SSE 10.4 mph - N/A   Overcast
1:00 PM 41.0 °F 35.2 °F 37.4 °F 87% 30.01 in 3.1 mi SSE 9.2 mph - N/A   Overcast
2:00 PM 41.0 °F 35.2 °F 39.2 °F 93% 29.98 in 3.1 mi SE 9.2 mph - N/A   Overcast
3:00 PM 41.0 °F 36.4 °F 39.2 °F 93% 29.98 in 2.5 mi SSE 6.9 mph - N/A   Overcast
4:00 PM 41.0 °F 36.4 °F 39.2 °F 93% 29.98 in 2.5 mi SSE 6.9 mph - N/A   Mostly Cloudy
4:30 PM 41.0 °F 36.4 °F 39.2 °F 93% 29.98 in 1.6 mi SE 6.9 mph - N/A   Overcast
5:00 PM 41.0 °F 36.4 °F 39.2 °F 93% 29.98 in 1.9 mi SSE 6.9 mph - N/A   Overcast
6:00 PM 41.0 °F 35.8 °F 39.2 °F 93% 29.98 in 1.9 mi SE 8.1 mph - N/A   Overcast
7:00 PM 39.2 °F 34.2 °F 39.2 °F 100% 29.98 in 1.9 mi SE 6.9 mph - N/A   Overcast
7:28 PM 39.2 °F 35.0 °F 39.2 °F 100% 29.98 in 1.9 mi SE 5.8 mph - N/A   Overcast
8:00 PM 39.2 °F 35.0 °F 39.2 °F 100% 29.95 in 1.6 mi SE 5.8 mph - N/A   Overcast
9:00 PM 41.0 °F 38.0 °F 39.2 °F 93% 29.95 in 1.6 mi SE 4.6 mph - N/A   Overcast
10:00 PM 41.0 °F 37.1 °F 39.2 °F 93% 29.95 in 1.6 mi SE 5.8 mph - N/A   Overcast
11:00 PM 41.0 °F 35.8 °F 41.0 °F 100% 29.95 in 1.6 mi SE 8.1 mph - N/A   Overcast